Wind_Speed
14 10 2 12 12 12 14 12 12 15 16 17 17 17 13 12 15 14 13 12 11 11 11 10 11 9 7 6 5 5 5 5 5
9 12 11 7 9 14 12 11 11 11 12 14 15 15 15 16 15 14 13 12 13 14 11 11 11 9 8 8 8 8 8 7 8
7 5 6 10 9 8 10 10 11 11 11 12 11 14 18 18 17 18 18 16 14 9 11 11 12 11 11 11 11 11 12 11 10
8 8 7 6 5 7 11 12 13 12 12 12 12 11 12 16 14 14 19 14 13 12 15 14 12 12 11 11 11 11 13 12 12
7 7 6 6 5 6 10 19 18 16 13 13 15 15 14 12 13 14 11 12 12 11 11 13 9 9 11 12 12 12 16 15 15
7 7 6 5 5 2 4 9 24 22 17 13 12 12 13 16 16 17 17 17 15 14 14 13 13 14 15 17 18 18 18 16 14
7 7 8 7 6 4 4 7 25 24 22 13 12 11 13 15 14 16 17 17 16 17 17 16 15 14 15 17 17 17 15 14 12
9 9 9 8 7 4 5 2 17 20 13 11 14 15 17 16 14 14 15 16 15 15 16 15 13 13 13 14 14 13 12 11 10
11 11 10 9 9 8 9 7 8 12 13 14 13 13 14 13 12 13 12 11 11 11 12 12 10 11 11 10 10 9 9 9 8
14 14 12 12 11 11 11 11 11 13 14 14 14 15 14 13 13 14 13 13 13 11 11 11 10 11 11 11 10 9 10 10 10
18 19 18 17 16 15 14 13 13 14 15 16 18 19 18 17 16 17 17 16 16 15 15 15 13 13 12 13 13 13 13 12 12
23 23 22 22 21 20 19 18 18 18 17 17 17 17 19 21 22 23 22 22 21 20 20 19 18 16 15 16 16 16 15 15 15
27 25 24 24 23 23 23 22 22 22 21 20 20 18 18 19 19 22 24 25 26 25 26 24 24 23 21 21 20 20 19 19 19
26 26 27 26 26 25 25 25 26 27 26 25 25 24 23 23 23 23 23 23 25 26 27 28 30 29 29 28 26 26 25 24 25
27 27 27 27 28 29 29 29 29 30 31 30 29 28 28 28 27 27 26 25 25 25 27 28 29 29 31 31 31 31 30 30 31
30 30 30 30 29 30 30 31 32 34 34 34 34 33 33 33 33 31 31 31 30 28 27 28 29 29 29 30 31 30 30 30 32
34 34 34 35 34 35 35 35 34 35 36 37 38 37 37 38 37 36 36 35 34 34 32 31 30 30 30 31 31 31 29 29 30
38 38 38 38 38 38 38 38 38 39 40 40 41 41 42 42 42 42 41 40 39 39 38 37 36 33 33 33 34 33 31 30 31
43 43 43 42 42 42 42 42 42 42 43 43 44 45 45 45 46 46 46 46 45 45 43 42 42 40 38 38 37 37 35 34 32
46 47 47 48 47 47 48 47 46 47 47 48 48 49 48 48 49 49 50 50 50 50 49 47 47 46 45 44 42 42 40 38 38
Wind_Direction
202 212 259 156 183 167 180 198 206 212 220 224 230 229 224 216 223 224 224 218 213 214 214 211 214 212 212 212 214 233 233 234 237
218 225 181 214 175 179 193 200 203 202 214 220 222 217 220 218 218 218 220 222 217 205 209 209 215 213 217 231 232 242 249 252 257
151 172 205 222 207 188 202 202 204 199 200 206 210 222 222 226 228 230 225 232 236 218 207 224 224 226 227 236 239 248 252 253 256
131 121 125 156 194 208 228 223 203 190 183 192 190 197 219 218 224 240 227 233 234 222 215 223 224 231 233 238 246 253 258 258 255
136 135 140 142 145 171 220 223 209 193 187 195 195 197 201 204 215 229 238 225 223 230 232 243 225 229 244 252 249 253 255 252 253
182 182 185 189 193 202 291 249 214 204 201 204 212 214 215 212 215 220 221 226 226 228 230 236 238 237 238 244 245 247 250 252 250
215 207 209 221 223 243 315 292 207 205 206 204 217 226 237 232 228 238 238 237 234 234 236 239 244 248 247 247 246 244 244 244 242
224 223 221 225 229 221 245 138 190 202 202 221 228 229 234 241 234 238 244 244 240 237 238 236 233 234 234 239 241 241 241 232 223
225 224 221 226 228 219 226 222 186 195 209 216 220 225 223 226 222 229 230 230 236 228 229 222 219 220 226 227 228 230 230 225 230
241 242 237 237 236 231 227 226 225 221 219 215 218 223 226 228 227 232 233 232 234 233 238 239 220 224 226 225 226 229 232 238 245
248 250 249 246 242 238 234 227 230 231 232 230 230 231 232 234 235 238 240 241 243 244 246 248 245 234 238 237 236 237 240 244 250
239 240 243 247 247 245 244 243 240 241 239 240 239 237 240 242 243 244 244 245 245 245 249 251 254 252 247 250 248 247 249 253 255
246 245 244 244 245 246 249 251 252 249 248 245 247 245 244 247 249 249 249 249 249 250 251 251 254 254 252 251 254 254 255 257 258
258 257 254 250 248 248 248 247 249 250 250 249 247 248 247 247 247 248 249 250 251 251 252 253 253 254 254 252 253 254 256 258 259
260 257 256 256 254 251 248 247 245 246 249 250 249 250 250 251 251 252 253 254 255 253 253 252 253 253 255 255 254 253 254 257 259
259 260 260 259 255 255 255 254 252 250 249 249 249 248 248 249 250 251 252 253 255 256 252 253 253 254 255 257 257 256 254 252 256
259 259 260 261 260 261 260 257 256 256 257 256 255 253 251 251 251 250 251 251 252 254 255 255 253 253 253 255 257 258 256 253 253
261 260 260 261 261 261 261 262 263 263 262 261 260 258 257 255 255 254 252 252 251 253 253 254 254 253 254 255 256 257 257 254 252
263 263 262 261 262 262 262 262 262 260 260 262 264 264 262 261 259 259 257 255 254 253 253 253 254 253 253 253 255 256 256 258 255
263 263 263 264 265 265 264 263 262 263 264 263 262 262 261 263 263 261 262 261 259 258 257 255 255 255 253 253 253 254 254 253 253
Height
5830 5829 5830 5832 5835 5836 5839 5842 5845 5848 5848 5850 5854 5855 5857 5860 5862 5862 5863 5864 5865 5867 5869 5870 5871 5871 5872 5872 5873 5874 5874 5874 5874
5828 5830 5830 5831 5834 5835 5837 5840 5843 5846 5848 5850 5853 5855 5856 5858 5860 5861 5862 5863 5864 5865 5867 5868 5869 5870 5870 5871 5871 5872 5873 5873 5873
5829 5829 5829 5832 5833 5835 5838 5840 5842 5844 5847 5849 5851 5852 5853 5855 5857 5859 5860 5860 5860 5860 5864 5866 5867 5867 5868 5870 5870 5870 5871 5871 5870
5830 5830 5831 5833 5833 5834 5837 5839 5840 5843 5846 5848 5849 5850 5851 5853 5855 5856 5857 5859 5860 5861 5861 5864 5864 5865 5866 5867 5867 5868 5869 5869 5869
5832 5832 5832 5833 5834 5835 5837 5837 5839 5842 5845 5847 5848 5849 5849 5850 5852 5854 5854 5856 5858 5859 5858 5860 5860 5862 5863 5865 5865 5865 5867 5867 5867
5832 5833 5833 5833 5834 5834 5834 5834 5836 5839 5843 5845 5846 5846 5847 5848 5849 5851 5853 5854 5855 5856 5857 5858 5858 5859 5860 5861 5862 5863 5864 5864 5864
5832 5832 5832 5832 5832 5833 5833 5829 5829 5835 5840 5842 5844 5844 5845 5846 5847 5849 5851 5851 5853 5853 5854 5854 5856 5857 5857 5858 5859 5860 5860 5861 5861
5830 5831 5830 5831 5831 5831 5831 5830 5831 5835 5838 5840 5842 5843 5843 5844 5845 5846 5848 5849 5849 5850 5851 5851 5852 5854 5855 5855 5856 5857 5858 5858 5860
5830 5830 5829 5830 5831 5831 5831 5831 5832 5835 5837 5839 5839 5840 5841 5841 5843 5844 5846 5846 5846 5847 5848 5848 5850 5851 5852 5853 5854 5854 5856 5857 5858
5827 5828 5828 5829 5830 5830 5830 5831 5831 5832 5834 5836 5837 5838 5838 5839 5840 5842 5842 5843 5844 5844 5846 5846 5847 5849 5849 5850 5851 5851 5853 5854 5856
5825 5826 5826 5828 5829 5829 5829 5830 5830 5831 5831 5832 5835 5835 5834 5835 5837 5839 5839 5840 5841 5841 5843 5844 5844 5845 5846 5847 5848 5849 5850 5851 5852
5820 5822 5823 5824 5825 5827 5827 5828 5828 5827 5828 5829 5830 5830 5831 5832 5833 5835 5835 5836 5837 5838 5839 5839 5840 5841 5843 5843 5844 5846 5846 5847 5848
5815 5817 5817 5818 5820 5821 5822 5823 5823 5824 5824 5825 5825 5826 5827 5828 5828 5829 5830 5831 5832 5832 5834 5834 5835 5836 5837 5838 5840 5841 5841 5842 5843
5810 5811 5812 5813 5814 5814 5815 5817 5817 5818 5818 5820 5821 5821 5823 5824 5824 5824 5824 5825 5825 5826 5827 5828 5828 5830 5831 5832 5834 5834 5835 5836 5837
5804 5804 5805 5807 5808 5808 5808 5809 5810 5810 5811 5812 5814 5815 5816 5817 5817 5818 5818 5818 5819 5820 5820 5821 5822 5823 5823 5824 5826 5827 5828 5830 5830
5797 5798 5798 5799 5800 5800 5802 5802 5803 5802 5803 5803 5804 5806 5807 5808 5809 5810 5812 5812 5812 5813 5814 5814 5815 5815 5816 5817 5817 5818 5820 5822 5822
5790 5791 5791 5791 5792 5793 5793 5795 5795 5795 5795 5796 5796 5797 5798 5798 5799 5801 5802 5804 5805 5805 5805 5806 5807 5808 5809 5809 5809 5810 5812 5814 5814
5781 5782 5783 5783 5784 5785 5785 5786 5787 5788 5787 5787 5788 5789 5790 5790 5790 5791 5793 5794 5795 5796 5797 5798 5799 5800 5801 5801 5801 5802 5804 5805 5807
5772 5772 5773 5774 5774 5775 5776 5777 5777 5778 5778 5779 5780 5780 5781 5781 5782 5782 5783 5784 5785 5786 5787 5788 5789 5791 5792 5793 5793 5793 5794 5796 5797
5762 5762 5763 5763 5764 5765 5765 5766 5767 5767 5768 5768 5768 5768 5769 5771 5772 5773 5773 5774 5775 5775 5777 5779 5779 5780 5782 5783 5784 5784 5785 5787 5787